Regional Weather Roundup
Issued by NWS

Home | Current Version | Previous Version | Graphics & Text | Print | Product List | Glossary On
Versions: 1 2 3 4 5 6 7 8 9 10 11 12 13 14 15 16 17 18 19 20 21 22 23 24 25 26 27 28 29 30 31 32 33 34 35 36 37 38 39 40 41 42 43 44 45 46 47 48 49 50
000
ASUS45 KBOU 270807
RWRCO

WEATHER ROUNDUP FOR COLORADO
NATIONAL WEATHER SERVICE DENVER/BOULDER CO
100 AM MST FRI FEB 27 2015

NOTE: "FAIR" INDICATES FEW OR NO CLOUDS BELOW 12000 FEET WITH NO
SIGNIFICANT WEATHER AND/OR OBSTRUCTIONS TO VISIBILITY.

COZ001>005-013-030-031-270900-
...NORTHWEST COLORADO...

CITY           SKY/WX    TMP DP  RH WIND       PRES   REMARKS
CRAIG            N/A     19  12  74 N3        29.87R
HAYDEN         MOCLDY    18  14  86 W8        29.83F WCI   7
MEEKER         LGT SNOW  23  20  88 CALM      29.83F FOG
MOUNT WERNER   NOT AVBL
STEAMBOAT SPGS CLOUDY    17  15  90 CALM      29.82F
WALDEN         PTCLDY     0  -6  78 N5        29.81S WCI -10
$$

COZ006>008-011-270900-
...WEST CENTRAL VALLEYS...

CITY           SKY/WX    TMP DP  RH WIND       PRES   REMARKS
GRAND JUNCTION CLOUDY    33  26  75 N7        29.83F WCI  27
MONTROSE       CLOUDY    27  22  81 S7        29.85F WCI  19
EAGLE          CLOUDY    27  25  93 CALM      29.82S
RIFLE          LGT SNOW  30  28  92 CALM      29.83S FOG
DELTA          CLOUDY    33  29  83 E5        29.85S WCI  29
NUCLA          CLOUDY    30  27  86 E3        29.88S
$$

COZ017>023-064>068-270900-
...SOUTHWEST COLORADO...

CITY           SKY/WX    TMP DP  RH WIND       PRES   REMARKS
DURANGO        CLOUDY    27  26  96 SW5       29.81S WCI  22
CORTEZ         CLOUDY    28  28 100 CALM      29.86R
PAGOSA SPRINGS FLURRIES  27  26  98 CALM      29.80S
TELLURIDE      FLURRIES  20  19  96 W3        29.80S
WOLF CREEK PAS SNOW      10  10 100 SW13G20   29.76S VSB 1/4 WCI  -5
$$

COZ009-010-012-014-032>034-037-058>063-270900-
...CENTRAL COLORADO...

CITY           SKY/WX    TMP DP  RH WIND       PRES   REMARKS
ASPEN          LGT SNOW  19  16  88 S3        29.76F FOG
BUENA VISTA    LGT SNOW   4   0  83 SE7       29.91S WCI  -8
COPPER MTN     LGT SNOW  12   5  73 MISG      29.68F
BERTHOUD PASS  LGT SNOW   1  -4  78 NW18      29.65F VSB 3/4 WCI -19
COTTONWOOD PAS LGT SNOW   3  -4  72 CALM      29.79F
GUNNISON       MOCLDY    16  10  79 CALM      29.83S
KREMMLING      CLOUDY    18   9  68 N7        29.83S WCI   8
LEADVILLE      CLOUDY    -5  -8  87 CALM      29.77S
MONARCH PASS     N/A      9   5  85 MISG      29.80F
SALIDA         CLOUDY     8   3  82 SE7       30.01F WCI  -4
SUNLIGHT       LGT SNOW  16  14  93 CALM      29.70S
WILKERSON PASS MOCLDY    -6 -11  77 SW6       29.72F WCI -18
$$

COZ069>075-270900-
...SAN LUIS VALLEY/SANGRE DE CRISTO MOUNTAINS...

CITY           SKY/WX    TMP DP  RH WIND       PRES   REMARKS
ALAMOSA        LGT SNOW  20  15  81 SE9       29.80F WCI   9
LA VETA PASS   LGT SNOW  -2  -6  84 N6        29.77F WCI -14
SAGUACHE       LGT SNOW  21  19  93 SE7       29.81S WCI  13
$$

COZ035-036-038>040-270900-
...NORTHERN COLORADO FRONT RANGE...

CITY           SKY/WX    TMP DP  RH WIND       PRES   REMARKS
DENVER INTL AP HVY SNOW  11   5  77 S14       30.06S VSB 1/4 WCI  -5
DMNS CITY PARK   N/A     11   8  89 NW1       30.07S
AURORA         CLOUDY     8   1  72 SW7       30.05F WCI  -3
FRONT RANGE AP NOT AVBL
ERIE MUNI ARPT FLURRIES   5   3  91 W8        30.07F WCI  -8
BOULDER MUN AP CLOUDY    10   9  92 NW3       30.07F
CENTENNIAL     MOCLDY     5   0  79 SW6       30.03F WCI  -6
BROOMFIELD     LGT SNOW  10   9  92 NW10      30.04F WCI  -3
FORT COLLINS   MOCLDY    12   9  85 E3        30.10F
LONGMONT       CLOUDY    13   9  84 NW6       30.11F WCI   4
$$

COZ041-046-047-076>085-087-088-270900-
...PIKES PEAK/PALMER DIVIDE AND SOUTHERN FOOTHILLS...

CITY           SKY/WX    TMP DP  RH WIND       PRES   REMARKS
COLO. SPRINGS  LGT SNOW   8   5  87 SE13      30.05F VSB 3/4 WCI  -8
A. F. ACADEMY  CLOUDY     5   1  85 S14       30.00F WCI -12
ELLICOTT       NOT AVBL
FALCON         LGT SNOW   4   1  85 SE12      30.01F WCI -12
FORT CARSON    LGT SNOW   8   6  88 SE7       30.06F FOG     WCI  -3
LIMON          LGT SNOW   7   5  91 SE14      30.12F FOG     WCI -10
MONUMENT HILL  PTCLDY     3  -2  78 S13       29.95F WCI -14
TRINIDAD       LGT SNOW  10   5  80 NW9       30.05F WCI  -3
$$

COZ042>045-048>051-090-091-270900-
...NORTHEAST COLORADO...

CITY           SKY/WX    TMP DP  RH WIND       PRES   REMARKS
GREELEY ARPT   PTCLDY    12   5  73 SE16      30.11F WCI  -4
AKRON          LGT SNOW   8   5  87 E13       30.17F FOG     WCI  -8
BURLINGTON     LGT SNOW  13   8  81 SE14      30.24S WCI  -2
WRAY           CLOUDY    13   4  66 E14       30.30S WCI  -2
STERLING       LGT SNOW  12   7  79 E12       30.24F WCI  -2
HOLYOKE        NOT AVBL
FORT MORGAN    LGT SNOW  13   9  86 SE14      30.17F WCI  -3
$$

COZ086-089-092>099-270900-
...SOUTHEAST COLORADO...

CITY           SKY/WX    TMP DP  RH WIND       PRES   REMARKS
PUEBLO         LGT SNOW  14  10  84 E8        30.15F VSB 3/4 WCI   3
LA JUNTA       LGT SNOW  15  11  83 E16       30.19F FOG     WCI  -1
LAMAR          LGT SNOW  15  12  88 SE9       30.24F FOG     WCI   3
SPRINGFIELD      N/A     12   9  87 SE15      30.20F WCI  -4
$$



USA.gov is the U.S. government's official web portal to all federal, state and local government web resources and services.